Marion, IN

5:40 AM EDT on October 18, 2017 (GMT -0400)
Marion Municipal

Weather History for KMZZ - July, 2013

Change the Weather History Date:

Saturday, July 6, 2013

  Actual Average (KMIE) Record (KMIE)
Temperature  
Mean Temperature 70 °F -  
Max Temperature 74 °F 83 °F 101 °F (2012)
Min Temperature 66 °F 62 °F 46 °F (1983)
Cooling Degree Days 5    
Growing Degree Days 20 (Base 50)    
Moisture  
Dew Point 66 °F    
Average Humidity 87    
Maximum Humidity 95    
Minimum Humidity 75    
Precipitation  
Precipitation 0.98 in - - ()
Sea Level Pressure  
Sea Level Pressure 30.10 in    
Wind  
Wind Speed 4 mph (SSW)    
Max Wind Speed 9 mph    
Max Gust Speed -    
Visibility 8 miles    
Events Rain    
Averages and records for this station are not official NWS values.
T = Trace of Precipitation, MM = Missing Value Source: NWS Daily Summary

Daily Weather History Graph

Daily Weather History Graph

Search for Another Location

Airport or City:

Trip Planner

Search our weather history database for the weather conditions in past years. The results will help you decide how hot, cold, wet, or windy it might be!

Date:

Astronomy

Jul. 06, 2013 Rise Set
Actual Time 6:18 AM EDT 9:15 PM EDT
Civil Twilight 5:46 AM EDT 9:48 PM EDT
Nautical Twilight 5:04 AM EDT 10:30 PM EDT
Astronomical Twilight 4:16 AM EDT 11:18 PM EDT
Moon 5:04 AM EDT (7/6) 7:56 PM EDT (7/6)
Length of Visible Light 16h 02m
Length of Day
14h 56m
Waning Crescent, 2% of the Moon is Illuminated
Jul 6
Waning Crescent
Jul 8
New
Jul 15
First Quarter
Jul 22
Full
Jul 29
Last Quarter

Hourly Weather History & Observations

Time (EDT) Temp. Dew Point Humidity Pressure Visibility Wind Dir Wind Speed Gust Speed Precip Events Conditions
12:15 AM 70.0 °F 66.2 °F 88% 30.13 in 10.0 mi South 4.6 mph - N/A   Clear
12:35 AM 69.8 °F 66.2 °F 88% 30.13 in 10.0 mi South 4.6 mph - N/A   Clear
12:55 AM 69.4 °F 66.2 °F 89% 30.13 in 7.0 mi SSE 5.8 mph - N/A   Clear
1:15 AM 69.6 °F 66.2 °F 89% 30.13 in 10.0 mi South 4.6 mph - N/A   Clear
1:35 AM 69.3 °F 66.2 °F 90% 30.13 in 10.0 mi Calm Calm - N/A   Clear
1:55 AM 69.1 °F 66.2 °F 91% 30.13 in 10.0 mi Calm Calm - N/A   Clear
2:15 AM 68.9 °F 66.2 °F 91% 30.13 in 7.0 mi SSE 3.5 mph - N/A   Clear
2:35 AM 68.7 °F 66.2 °F 92% 30.13 in 7.0 mi Calm Calm - N/A   Clear
2:55 AM 68.4 °F 66.2 °F 93% 30.13 in 7.0 mi SE 3.5 mph - N/A   Clear
3:15 AM 68.2 °F 66.2 °F 93% 30.12 in 7.0 mi Calm Calm - N/A   Clear
3:35 AM 68.2 °F 66.2 °F 93% 30.11 in 7.0 mi SE 3.5 mph - N/A   Clear
3:55 AM 68.0 °F 66.2 °F 94% 30.12 in 5.0 mi Calm Calm - N/A   Clear
4:15 AM 68.2 °F 66.4 °F 94% 30.11 in 7.0 mi Calm Calm - N/A   Clear
4:35 AM 68.0 °F 66.2 °F 94% 30.11 in 7.0 mi Calm Calm - N/A   Clear
4:55 AM 68.0 °F 66.2 °F 94% 30.11 in 7.0 mi Calm Calm - N/A   Clear
5:15 AM 68.0 °F 66.2 °F 94% 30.11 in 7.0 mi Calm Calm - N/A   Clear
5:35 AM 68.0 °F 66.2 °F 94% 30.11 in 5.0 mi ESE 4.6 mph - N/A   Clear
5:55 AM 68.0 °F 66.4 °F 95% 30.11 in 5.0 mi SSE 5.8 mph - N/A   Clear
6:15 AM 68.2 °F 66.6 °F 95% 30.11 in 7.0 mi SSE 5.8 mph - N/A   Scattered Clouds
6:35 AM 68.4 °F 66.7 °F 95% 30.11 in 5.0 mi SE 3.5 mph - N/A   Mostly Cloudy
6:55 AM 68.2 °F 66.6 °F 95% 30.11 in 5.0 mi SSE 3.5 mph - N/A   Mostly Cloudy
7:15 AM 68.5 °F 66.9 °F 95% 30.12 in 7.0 mi Calm Calm - N/A   Overcast
7:35 AM 68.9 °F 67.3 °F 95% 30.12 in 7.0 mi Calm Calm - N/A   Overcast
7:55 AM 69.3 °F 67.5 °F 94% 30.13 in 7.0 mi SSW 3.5 mph - N/A   Overcast
8:15 AM 69.3 °F 67.5 °F 94% 30.12 in 1.5 mi SSE 5.8 mph - N/A Rain Heavy Rain
8:35 AM 69.1 °F 67.5 °F 95% 30.13 in 2.0 mi SSE 4.6 mph - 0.02 in Rain Light Rain
8:55 AM 69.1 °F 67.5 °F 95% 30.13 in 2.0 mi SSE 5.8 mph - 0.08 in Rain Light Rain
9:15 AM 68.7 °F 67.1 °F 95% 30.13 in 1.8 mi South 9.2 mph - 0.08 in Rain Rain
9:35 AM 67.8 °F 66.0 °F 94% 30.14 in 0.5 mi SSW 5.8 mph - 0.41 in Rain Heavy Rain
9:55 AM 67.5 °F 65.8 °F 95% 30.13 in 0.8 mi South 6.9 mph - 0.87 in Rain Heavy Rain
10:15 AM 67.3 °F 65.5 °F 94% 30.12 in 5.0 mi Calm Calm - 0.03 in   Overcast
10:35 AM 68.9 °F 66.7 °F 93% 30.12 in 10.0 mi SSE 3.5 mph - 0.03 in   Mostly Cloudy
10:55 AM 70.3 °F 67.8 °F 92% 30.12 in 10.0 mi South 3.5 mph - 0.03 in   Scattered Clouds
11:15 AM 70.7 °F 66.9 °F 88% 30.12 in 7.0 mi South 4.6 mph - N/A   Clear
11:35 AM 70.9 °F 66.0 °F 85% 30.12 in 10.0 mi South 6.9 mph - N/A   Clear
11:55 AM 71.6 °F 66.2 °F 83% 30.12 in 10.0 mi South 5.8 mph - N/A   Scattered Clouds
12:15 PM 72.0 °F 65.8 °F 81% 30.11 in 10.0 mi South 3.5 mph - N/A   Mostly Cloudy
12:35 PM 72.5 °F 65.7 °F 79% 30.11 in 10.0 mi Calm Calm - N/A   Mostly Cloudy
12:55 PM 72.7 °F 65.7 °F 79% 30.11 in 7.0 mi SW 4.6 mph - N/A   Overcast
1:15 PM 72.3 °F 65.7 °F 79% 30.10 in 10.0 mi SW 4.6 mph - N/A   Overcast
1:35 PM 72.3 °F 65.3 °F 78% 30.10 in 7.0 mi Calm Calm - N/A   Overcast
1:55 PM 72.9 °F 66.0 °F 79% 30.10 in 10.0 mi SW 6.9 mph - N/A   Overcast
2:15 PM 72.0 °F 66.7 °F 84% 30.10 in 10.0 mi West 6.9 mph - N/A   Overcast
2:35 PM 72.7 °F 66.7 °F 82% 30.09 in 10.0 mi West 5.8 mph - N/A   Overcast
2:55 PM 73.0 °F 66.2 °F 79% 30.07 in 7.0 mi Calm Calm - N/A   Overcast
3:15 PM 73.9 °F 66.4 °F 77% 30.08 in 10.0 mi WSW 5.8 mph - N/A   Mostly Cloudy
3:35 PM 74.3 °F 65.8 °F 75% 30.08 in 10.0 mi WNW 4.6 mph - N/A   Scattered Clouds
3:55 PM 73.8 °F 65.5 °F 75% 30.07 in 10.0 mi WNW 4.6 mph - N/A   Mostly Cloudy
4:15 PM 73.4 °F 65.5 °F 76% 30.06 in 10.0 mi Calm Calm - N/A   Overcast
4:35 PM 73.6 °F 65.5 °F 76% 30.06 in 10.0 mi SW 5.8 mph - N/A   Overcast
4:55 PM 72.9 °F 65.8 °F 79% 30.06 in 10.0 mi WSW 9.2 mph - N/A   Overcast
5:15 PM 72.7 °F 65.5 °F 78% 30.06 in 10.0 mi WSW 9.2 mph - N/A   Mostly Cloudy
5:35 PM 72.7 °F 65.8 °F 79% 30.06 in 10.0 mi SW 9.2 mph - N/A   Mostly Cloudy
5:55 PM 72.9 °F 66.0 °F 79% 30.05 in 10.0 mi SW 8.1 mph - N/A   Scattered Clouds
6:15 PM 72.7 °F 65.7 °F 79% 30.05 in 10.0 mi SW 8.1 mph - N/A   Mostly Cloudy
6:35 PM 72.7 °F 65.8 °F 79% 30.04 in 7.0 mi SW 8.1 mph - N/A   Mostly Cloudy
6:55 PM 72.1 °F 65.5 °F 79% 30.05 in 10.0 mi WSW 9.2 mph - N/A   Mostly Cloudy
7:15 PM 71.8 °F 65.3 °F 80% 30.04 in 10.0 mi West 6.9 mph - N/A   Mostly Cloudy
7:35 PM 71.8 °F 65.1 °F 79% 30.05 in 10.0 mi WSW 4.6 mph - N/A   Mostly Cloudy
7:55 PM 71.6 °F 65.3 °F 80% 30.05 in 7.0 mi WSW 5.8 mph - N/A   Overcast
8:15 PM 71.2 °F 65.5 °F 82% 30.05 in 10.0 mi SW 5.8 mph - N/A   Overcast
8:35 PM 70.7 °F 65.3 °F 83% 30.05 in 10.0 mi SW 5.8 mph - N/A   Mostly Cloudy
8:55 PM 70.2 °F 65.1 °F 84% 30.05 in 10.0 mi WSW 4.6 mph - N/A   Overcast
9:15 PM 69.6 °F 64.9 °F 85% 30.06 in 10.0 mi SW 4.6 mph - N/A   Mostly Cloudy
9:35 PM 69.1 °F 65.3 °F 88% 30.06 in 7.0 mi SW 4.6 mph - N/A   Overcast
9:55 PM 69.1 °F 65.3 °F 88% 30.08 in 10.0 mi SSW 4.6 mph - N/A   Mostly Cloudy
10:15 PM 68.7 °F 65.3 °F 89% 30.08 in 7.0 mi SSW 4.6 mph - N/A   Overcast
10:35 PM 68.2 °F 65.3 °F 90% 30.09 in 10.0 mi South 3.5 mph - N/A   Mostly Cloudy
10:55 PM 67.6 °F 64.4 °F 89% 30.10 in 10.0 mi South 4.6 mph - N/A   Scattered Clouds
11:15 PM 67.1 °F 63.7 °F 89% 30.10 in 10.0 mi SSW 4.6 mph - N/A   Clear
11:35 PM 66.6 °F 63.5 °F 90% 30.10 in 10.0 mi SSW 4.6 mph - N/A   Mostly Cloudy
11:55 PM 66.2 °F 63.3 °F 90% 30.10 in 10.0 mi SSW 3.5 mph - N/A   Overcast